Tracking 19226 objects as of 23-Jul-2018
HD Live streaming from Space Station
objects crossing your sky now

FENGYUN 1C DEB

Track FENGYUN 1C DEB now!
10-day predictions


NORAD ID: 31094
Int'l Code: 1999-025BGQ
Perigee: 843.5 km
Apogee: 1,010.6 km
Inclination: 99.0 °
Period: 103.4 minutes
Semi major axis: 7298 km
RCS: 0.0135 m2 (small)
Launch date: May 10, 1999
Source: People's Republic of China (PRC)
Launch site: Taiyaun Space Center, China (TSC)

Note: This is SATELLITE DEBRIS
aabbcc
Your satellite tracking list
Your tracking list is empty




NASA's NSSDC Master Catalog

Two Line Element Set (TLE):
1 31094U 99025BGQ 18203.57192165 +.00000332 +00000-0 +27691-3 0  9998
2 31094 099.0345 108.4605 0114474 262.7568 096.0567 13.92499281579619
Source of the keplerian elements: AFSPC